EW7507 Weather Reports


time (UTC)temp
F
wind
direction
speed
knots
gust
knots
rain 1hr
in
rain 24hr
in
rain mn
in
humidity
%
barometer
mb
20260502214430 70 18 1.7 4.3 0.00 0.00 0.00 35 975.6
20260502214421 70 96 2.6 5.2 0.00 0.00 0.00 33 975.5
20260502213425 69 94 3.5 5.2 0.00 0.00 0.00 34 975.7
20260502213418 69 41 1.7 4.3 0.00 0.00 0.00 38 975.7
20260502212418 69 94 1.7 6.1 0.00 0.00 0.00 34 975.8
20260502211916 69 85 0.9 6.1 0.00 0.00 0.00 34 975.9
20260502211420 70 58 0.0 4.3 0.00 0.00 0.00 33 976.0
20260502210922 69 1 2.6 8.7 0.00 0.00 0.00 39 976.1
20260502210914 69 61 0.9 7.8 0.00 0.00 0.00 33 976.1
20260502205914 68 96 1.7 9.6 0.00 0.00 0.00 36 976.1
20260502205414 68 182 1.7 9.6 0.00 0.00 0.00 34 976.3
20260502204914 69 85 5.2 8.7 0.00 0.00 0.00 37 976.3
20260502204415 68 0 0.9 8.7 0.00 0.00 0.00 37 976.4
20260502203913 69 138 3.5 8.7 0.00 0.00 0.00 35 976.5
20260502203414 69 165 0.0 4.3 0.00 0.00 0.00 35 976.5
20260502202914 70 217 0.0 4.3 0.00 0.00 0.00 34 976.5
20260502202414 69 207 0.0 3.5 0.00 0.00 0.00 35 976.6
20260502201912 68 314 0.9 7.8 0.00 0.00 0.00 36 976.7
20260502201424 67 147 0.9 1.7 0.00 0.00 0.00 35 977.0
20260502201416 67 296 4.3 7.8 0.00 0.00 0.00 36 976.9
20260502200415 69 130 0.0 1.7 0.00 0.00 0.00 35 977.0
20260502195912 69 0 0.0 1.7 0.00 0.00 0.00 37 977.1
20260502195413 68 0 0.0 2.6 0.00 0.00 0.00 36 977.2
20260502194912 67 306 0.9 4.3 0.00 0.00 0.00 36 977.3
20260502194413 68 307 0.9 4.3 0.00 0.00 0.00 35 977.4
20260502193912 68 316 0.9 7.8 0.00 0.00 0.00 34 977.5
20260502192911 70 0 4.3 8.7 0.00 0.00 0.00 34 977.6
20260502192414 70 6 4.3 6.1 0.00 0.00 0.00 34 977.5
20260502191913 69 72 2.6 8.7 0.00 0.00 0.00 35 977.7
20260502191420 68 7 1.7 4.3 0.00 0.00 0.00 36 977.8
20260502191412 69 0 0.9 8.7 0.00 0.00 0.00 37 977.7
20260502190412 68 11 0.9 5.2 0.00 0.00 0.00 37 977.9
20260502185911 68 0 3.5 5.2 0.00 0.00 0.00 36 978.0
20260502185413 67 41 1.7 6.1 0.00 0.00 0.00 37 978.0
20260502184910 67 334 1.7 6.1 0.00 0.00 0.00 36 978.1
20260502184413 67 0 2.6 6.1 0.00 0.00 0.00 36 978.1
20260502183910 67 13 5.2 7.8 0.00 0.00 0.00 37 978.1
20260502183421 68 7 3.5 6.1 0.00 0.00 0.00 36 978.3
20260502183413 67 10 2.6 7.8 0.00 0.00 0.00 36 978.2
20260502183034 68 341 4.3 6.1 0.00 0.00 0.00 37 978.4
20260502181910 67 298 0.9 3.5 0.00 0.00 0.00 39 978.3
20260502181413 67 197 2.6 4.3 0.00 0.00 0.00 36 978.4
20260502180910 66 327 2.6 4.3 0.00 0.00 0.00 37 978.5
20260502180411 66 347 3.5 4.3 0.00 0.00 0.00 38 978.6
20260502170409 61 118 0.0 1.7 0.00 0.00 0.00 47 979.0
20260502163908 62 111 0.9 2.6 0.00 0.00 0.00 45 979.1
20260502163410 62 110 0.0 2.6 0.00 0.00 0.00 46 979.0
20260502162914 61 110 1.7 2.6 0.00 0.00 0.00 51 979.0
20260502162907 61 110 0.9 2.6 0.00 0.00 0.00 48 979.0
20260502161906 60 111 0.9 5.2 0.00 0.00 0.00 49 979.0
20260502161416 60 125 0.9 3.5 0.00 0.00 0.00 52 979.1
20260502161409 60 110 3.5 5.2 0.00 0.00 0.00 48 979.0
20260502160408 60 127 1.7 3.5 0.00 0.00 0.00 53 979.2
20260502151906 54 286 0.9 2.6 0.00 0.00 0.00 62 979.4
20260502151407 53 286 1.7 3.5 0.00 0.00 0.00 63 979.4
20260502150905 53 286 2.6 3.5 0.00 0.00 0.00 64 979.4
20260502150413 53 286 0.0 3.5 0.00 0.00 0.00 65 979.4
20260502150406 53 285 2.6 3.5 0.00 0.00 0.00 65 979.3
20260502130403 49 310 0.9 2.6 0.00 0.00 0.00 71 979.1
20260502123403 49 324 1.7 2.6 0.00 0.00 0.00 69 978.8
20260502122901 50 324 0.9 2.6 0.00 0.00 0.00 67 979.0
20260502122402 50 324 0.9 3.5 0.00 0.00 0.00 66 979.1
20260502121900 50 324 2.6 3.5 0.00 0.00 0.00 67 979.1
20260502121411 50 331 1.7 3.5 0.00 0.00 0.00 65 979.0
20260502121402 50 329 2.6 3.5 0.00 0.00 0.00 66 979.1
20260502120402 50 331 0.0 1.7 0.00 0.00 0.00 65 979.0
20260502115900 50 331 0.9 1.7 0.00 0.00 0.00 65 979.0
20260502115403 50 331 0.9 1.7 0.00 0.00 0.00 65 979.1
20260502114900 50 331 0.0 0.0 0.00 0.00 0.00 65 979.2
20260502114411 50 331 0.0 0.0 0.00 0.00 0.00 65 979.1
20260502114403 50 331 0.0 0.0 0.00 0.00 0.00 65 979.1
20260502114024 50 331 0.0 0.0 0.00 0.00 0.00 65 979.1
20260502112907 50 331 0.0 0.0 0.00 0.00 0.00 64 979.1
20260502112900 50 331 0.0 0.0 0.00 0.00 0.00 64 979.1
20260502112527 51 331 0.0 0.9 0.00 0.00 0.00 63 979.1
20260502111400 51 331 0.0 0.9 0.00 0.00 0.00 63 979.0
20260502110900 51 331 0.0 0.0 0.00 0.00 0.00 63 979.0
20260502110408 51 331 0.0 0.0 0.00 0.00 0.00 63 979.0
20260502110400 51 331 0.0 0.0 0.00 0.00 0.00 63 979.0
20260502105408 51 331 0.0 0.0 0.00 0.00 0.00 63 979.0
20260502105400 51 331 0.0 0.0 0.00 0.00 0.00 63 979.1
20260502104400 51 331 0.0 0.0 0.00 0.00 0.00 63 979.0
20260502103858 51 331 0.0 0.9 0.00 0.00 0.00 63 979.0
20260502103400 51 331 0.0 0.9 0.00 0.00 0.00 62 979.0
20260502102858 51 331 0.9 0.9 0.00 0.00 0.00 62 978.8
20260502102406 51 331 0.0 2.6 0.00 0.00 0.00 61 978.8
20260502102359 51 331 0.0 0.0 0.00 0.00 0.00 61 979.0
20260502101359 51 331 0.9 2.6 0.00 0.00 0.00 61 978.7
20260502100858 51 0 0.0 0.0 0.00 0.00 0.00 61 978.7
20260502100408 51 0 0.0 0.0 0.00 0.00 0.00 61 978.7
20260502100359 51 0 0.0 0.0 0.00 0.00 0.00 61 978.7
20260502091357 53 0 1.7 2.6 0.00 0.00 0.00 58 978.3
20260502090904 53 0 0.0 3.5 0.00 0.00 0.00 57 978.3
20260502090856 53 0 0.9 2.6 0.00 0.00 0.00 57 978.3
20260502071355 57 319 7.0 13.0 0.00 0.00 0.00 50 977.3
20260502070854 57 334 6.1 12.2 0.00 0.00 0.00 50 977.3
20260502070354 57 350 7.8 13.9 0.00 0.00 0.00 49 977.1
20260502065854 57 348 7.0 13.9 0.00 0.00 0.00 49 976.9
20260502065355 58 8 7.8 13.9 0.00 0.00 0.00 48 976.5
20260502064853 58 0 7.8 13.9 0.00 0.00 0.00 47 976.3
20260502064354 58 28 5.2 19.1 0.00 0.00 0.00 46 976.0
20260502063853 59 52 9.6 19.1 0.00 0.00 0.00 45 975.8
20260502063354 59 93 6.1 14.8 0.00 0.00 0.00 45 975.6
20260502062852 59 52 7.0 15.6 0.00 0.00 0.00 45 975.7
20260502062407 59 80 8.7 17.4 0.00 0.00 0.00 44 975.3
20260502062354 59 42 7.8 17.4 0.00 0.00 0.00 45 975.5
20260502061858 59 55 7.8 17.4 0.00 0.00 0.00 45 975.4
20260502061851 59 62 4.3 17.4 0.00 0.00 0.00 45 975.5
20260502060352 59 38 8.7 14.8 0.00 0.00 0.00 44 975.3
20260502055852 60 14 7.8 14.8 0.00 0.00 0.00 44 975.1
20260502055352 60 3 7.8 13.0 0.00 0.00 0.00 44 975.1
20260502054851 60 51 7.8 15.6 0.00 0.00 0.00 44 975.0
20260502054352 60 355 7.8 15.6 0.00 0.00 0.00 43 975.0
20260502053852 60 1 7.0 14.8 0.00 0.00 0.00 43 974.8
20260502053352 61 14 7.8 14.8 0.00 0.00 0.00 43 974.8
20260502052851 61 1 6.1 12.2 0.00 0.00 0.00 42 974.8
20260502052352 61 0 6.1 12.2 0.00 0.00 0.00 41 974.6
20260502051851 61 347 6.1 10.4 0.00 0.00 0.00 39 974.5
20260502051352 62 4 5.2 10.4 0.00 0.00 0.00 37 974.4
20260502050850 62 0 5.2 9.6 0.00 0.00 0.00 36 974.3
20260502050352 62 355 3.5 11.3 0.00 0.00 0.00 34 974.2
20260502045850 62 345 6.1 11.3 0.00 0.00 0.00 33 974.2
20260502045350 61 21 5.2 7.8 0.00 0.00 0.00 33 974.1
20260502044849 62 357 2.6 6.1 0.00 0.00 0.00 34 974.0
20260502044350 62 326 0.0 1.7 0.00 0.00 0.00 36 973.8
20260502043849 62 326 0.9 3.5 0.00 0.00 0.00 37 973.7
20260502043352 63 326 0.9 3.5 0.00 0.00 0.00 31 973.8
20260502042849 64 326 2.6 3.5 0.00 0.00 0.00 30 973.7
20260502042350 64 327 0.9 2.6 0.00 0.00 0.00 30 973.8
20260502041849 64 327 0.9 1.7 0.00 0.00 0.00 29 973.6
20260502041350 65 327 0.0 1.7 0.00 0.00 0.00 29 973.7
20260502040849 65 327 0.9 2.6 0.00 0.00 0.00 29 973.6
20260502040349 65 327 1.7 3.5 0.00 0.00 0.00 29 973.6
20260502035848 66 327 1.7 3.5 0.00 0.00 0.00 28 973.6
20260502035350 66 329 1.7 4.3 0.00 0.00 0.00 28 973.5
20260502034848 67 329 1.7 6.1 0.00 0.00 0.00 27 973.6
20260502034349 67 0 1.7 6.1 0.00 0.00 0.00 26 973.5
20260502033847 66 0 5.2 6.1 0.00 0.00 0.00 26 973.5
20260502033349 66 350 4.3 8.7 0.00 0.00 0.00 27 973.5
20260502032848 66 317 5.2 9.6 0.00 0.00 0.00 28 973.4
20260502032348 66 307 7.0 13.9 0.00 0.00 0.00 28 973.4
20260502031848 65 338 5.2 13.9 0.00 0.00 0.00 28 973.3
20260502031348 65 316 4.3 13.9 0.00 0.00 0.00 30 973.2
20260502030848 65 268 2.6 6.1 0.00 0.00 0.00 30 972.9
20260502030347 65 290 1.7 9.6 0.00 0.00 0.00 30 972.9
20260502025848 66 274 3.5 9.6 0.00 0.00 0.00 29 972.7
20260502025347 66 314 4.3 11.3 0.00 0.00 0.00 28 972.8
20260502024847 66 307 5.2 11.3 0.00 0.00 0.00 28 972.5
20260502024348 67 259 5.2 8.7 0.00 0.00 0.00 28 972.5
20260502023846 67 286 5.2 9.6 0.00 0.00 0.00 28 972.4
20260502023347 67 269 6.1 9.6 0.00 0.00 0.00 27 972.4
20260502022847 67 216 3.5 7.8 0.00 0.00 0.00 27 972.3
20260502022348 68 259 5.2 7.8 0.00 0.00 0.00 27 972.3
20260502021852 68 252 3.5 6.1 0.00 0.00 0.00 26 972.3
20260502021845 68 252 3.5 6.1 0.00 0.00 0.00 27 972.3
20260502020845 69 274 2.6 6.1 0.00 0.00 0.00 26 972.3
20260502020356 69 258 4.3 9.6 0.00 0.00 0.00 25 972.2
20260502020347 69 269 2.6 8.7 0.00 0.00 0.00 25 972.2
20260502015347 69 262 5.2 11.3 0.00 0.00 0.00 25 972.2
20260502014845 70 268 4.3 13.9 0.00 0.00 0.00 24 972.2
20260502014346 70 285 5.2 13.9 0.00 0.00 0.00 24 972.3
20260502013846 70 296 6.1 11.3 0.00 0.00 0.00 23 972.3
20260502013355 71 264 4.3 9.6 0.00 0.00 0.00 22 972.2
20260502013347 71 265 1.7 9.6 0.00 0.00 0.00 23 972.3
20260502013010 71 244 0.9 9.6 0.00 0.00 0.00 22 972.3
20260502011845 72 257 1.7 11.3 0.00 0.00 0.00 21 972.2
20260502011345 72 278 1.7 12.2 0.00 0.00 0.00 21 972.3
20260502010844 72 250 2.6 12.2 0.00 0.00 0.00 21 972.2
20260502010346 72 264 5.2 15.6 0.00 0.00 0.00 20 972.3
20260502005845 73 254 9.6 15.6 0.00 0.00 0.00 20 972.2
20260502005346 73 217 4.3 11.3 0.00 0.00 0.00 22 972.3
20260502004844 73 288 6.1 11.3 0.00 0.00 0.00 20 972.3
20260502004345 73 262 6.1 11.3 0.00 0.00 0.00 19 972.4
20260502003849 73 266 6.1 14.8 0.00 0.00 0.00 19 972.5
20260502003842 73 276 7.0 14.8 0.00 0.00 0.00 19 972.4
20260502002844 74 309 8.7 14.8 0.00 0.00 0.00 18 972.5
20260502002343 74 286 7.8 12.2 0.00 0.00 0.00 18 972.5
20260502001843 75 283 7.0 13.0 0.00 0.00 0.00 19 972.4
20260502001346 75 210 5.2 13.9 0.00 0.00 0.00 18 972.4
20260502000843 76 285 8.7 13.9 0.00 0.00 0.00 18 972.2
20260502000344 76 238 3.5 13.0 0.00 0.00 0.00 18 972.3
20260501235843 77 258 2.6 12.2 0.00 0.00 0.00 18 972.2
20260501235343 77 276 6.1 16.5 0.00 0.00 0.00 19 972.2
20260501234841 77 268 5.2 16.5 0.00 0.00 0.00 17 972.3
20260501234344 77 306 8.7 13.0 0.00 0.00 0.00 17 972.2
20260501233842 77 278 6.1 10.4 0.00 0.00 0.00 18 972.1
20260501233343 77 286 2.6 8.7 0.00 0.00 0.00 18 972.2
20260501232849 77 285 4.3 8.7 0.00 0.00 0.00 17 972.2
20260501232842 77 247 5.2 8.7 0.00 0.00 0.00 18 972.1
20260501231841 77 234 0.0 10.4 0.00 0.00 0.00 20 972.2
20260501231349 76 324 4.3 9.6 0.00 0.00 0.00 20 972.4
20260501231342 77 251 3.5 10.4 0.00 0.00 0.00 18 972.3
20260501230341 75 190 5.2 9.6 0.00 0.00 0.00 20 972.3
20260501225842 74 210 1.7 11.3 0.00 0.00 0.00 22 972.5
20260501225350 76 190 6.1 13.9 0.00 0.00 0.00 19 972.5
20260501225342 75 152 1.7 13.9 0.00 0.00 0.00 22 972.5
20260501224344 76 244 6.1 10.4 0.00 0.00 0.00 19 972.5
20260501223841 77 141 3.5 7.8 0.00 0.00 0.00 20 972.8
20260501223342 76 224 1.7 7.8 0.00 0.00 0.00 20 972.8
20260501222839 76 179 3.5 7.8 0.00 0.00 0.00 18 972.8
20260501222342 77 175 1.7 13.0 0.00 0.00 0.00 18 972.9
20260501221847 78 281 8.7 13.0 0.00 0.00 0.00 18 973.0
20260501221840 78 183 4.3 13.0 0.00 0.00 0.00 18 972.9
20260501220841 78 265 5.2 13.0 0.00 0.00 0.00 18 973.0
20260501220350 77 288 5.2 11.3 0.00 0.00 0.00 18 973.1
20260501220341 78 200 6.1 11.3 0.00 0.00 0.00 18 973.0
20260501215339 76 321 6.1 8.7 0.00 0.00 0.00 19 973.1
20260501214839 76 144 1.7 4.3 0.00 0.00 0.00 20 973.1